South Paris, Maine, United States (04281)
Lat: 44.22N, Lon: 70.51W
Wx Zone: MEZ012
Local Info
Past Weather Observations for Wednesday, February 25, 2015

NOTE: This archive is for the closest National Weather Service station to South Paris. Information may differ from the station used for current weather conditions.

Click here for Long-term Archive

Time Weather Temperature Dewpoint Humidity Pressure Winds Precip Visibility
23:55
Clear
18°F / -8°C 1°F / -17°C 49% 29.95 in
(1014 mb)
NNW 3.5 mph
(NNW 6 kph)
- 10SM
23:35
Clear
18°F / -8°C 3°F / -16°C 53% 29.92 in
(1013 mb)
NNW 5.8 mph
(NNW 9 kph)
- 10SM
23:15
Clear
18°F / -8°C 3°F / -16°C 53% 29.92 in
(1013 mb)
NNW 5.8 mph
(NNW 9 kph)
- 10SM
22:55
Clear
19°F / -7°C 3°F / -16°C 49% 29.92 in
(1013 mb)
Calm - 10SM
22:35
Clear
19°F / -7°C 3°F / -16°C 49% 29.92 in
(1013 mb)
Calm - 10SM
22:15
Clear
21°F / -6°C 3°F / -16°C 45% 29.89 in
(1012 mb)
NW 6.9 mph
(NW 11 kph)
- 10SM
21:55
Clear
21°F / -6°C 5°F / -15°C 49% 29.89 in
(1012 mb)
NW 10.4 mph
(NW 17 kph)
- 10SM
21:35
Clear
21°F / -6°C 5°F / -15°C 49% 29.89 in
(1012 mb)
Calm - 10SM
21:15
Clear
21°F / -6°C 5°F / -15°C 49% 29.86 in
(1011 mb)
Calm - 10SM
20:55
Clear
23°F / -5°C 9°F / -13°C 54% 29.83 in
(1010 mb)
NW 8.1 mph
(NW 13 kph)
- 10SM
20:35
Clear
21°F / -6°C 3°F / -16°C 45% 29.83 in
(1010 mb)
Calm - 10SM
20:15
Clear
23°F / -5°C 5°F / -15°C 46% 29.83 in
(1010 mb)
Calm - 10SM
19:55
Clear
25°F / -4°C 7°F / -14°C 46% 29.8 in
(1009 mb)
NNW 6.9 mph
(NNW 11 kph)
- 10SM
19:35
Clear
25°F / -4°C 5°F / -15°C 42% 29.8 in
(1009 mb)
NW 10.4 mph
(NW 17 kph)
- 10SM
19:15
Clear
27°F / -3°C 5°F / -15°C 39% 29.77 in
(1008 mb)
NNW 3.5 mph
(NNW 6 kph)
- 10SM
18:55
Clear
27°F / -3°C 5°F / -15°C 39% 29.77 in
(1008 mb)
Calm - 10SM
18:35
Clear
27°F / -3°C 5°F / -15°C 39% 29.74 in
(1007 mb)
NW 5.8 mph
(NW 9 kph)
- 10SM
18:15
Clear
28°F / -2°C 3°F / -16°C 34% 29.74 in
(1007 mb)
NW 8.1 mph
(NW 13 kph)
- 10SM
17:55
Clear
28°F / -2°C 3°F / -16°C 34% 29.74 in
(1007 mb)
W 10.4 mph
(W 17 kph)
- 10SM
17:35
Clear
28°F / -2°C 3°F / -16°C 34% 29.74 in
(1007 mb)
WNW 6.9 mph
(WNW 11 kph)
- 10SM
17:15
Clear
30°F / -1°C 3°F / -16°C 31% 29.71 in
(1006 mb)
WNW 9.2 mph
(WNW 15 kph)
- 10SM
16:55
Clear
30°F / -1°C 5°F / -15°C 34% 29.71 in
(1006 mb)
WNW 10.4 mph
(WNW 17 kph)
- 10SM
16:35
Clear
30°F / -1°C 5°F / -15°C 34% 29.68 in
(1005 mb)
NW 8.1 mph
(NW 13 kph)
- 10SM
16:15
Clear
30°F / -1°C 5°F / -15°C 34% 29.68 in
(1005 mb)
NW 6.9 mph
(NW 11 kph)
- 10SM
15:55
Clear
30°F / -1°C 5°F / -15°C 34% 29.68 in
(1005 mb)
NW 12.7 mph
(NW 20 kph)
- 10SM
15:35
Clear
30°F / -1°C 5°F / -15°C 34% 29.65 in
(1004 mb)
WNW 10.4 mph
(WNW 17 kph)
- 10SM
15:15
Clear
30°F / -1°C 7°F / -14°C 37% 29.65 in
(1004 mb)
NNW 12.7 mph
(NNW 20 kph)
- 10SM
14:55
Clear
32°F / 0°C 7°F / -14°C 34% 29.65 in
(1004 mb)
NW 11.5 mph
(NW 19 kph)
- 10SM
14:35
Clear
32°F / 0°C 7°F / -14°C 34% 29.62 in
(1003 mb)
NW 8.1 mph
(NW 13 kph)
- 10SM
14:15
Clear
30°F / -1°C 7°F / -14°C 37% 29.62 in
(1003 mb)
NW 6.9 mph
(NW 11 kph)
- 10SM
13:55
Clear
30°F / -1°C 7°F / -14°C 37% 29.62 in
(1003 mb)
WNW 10.4 mph
(WNW 17 kph)
- 10SM
13:35
Clear
30°F / -1°C 9°F / -13°C 40% 29.62 in
(1003 mb)
SSW 8.1 mph
(SSW 13 kph)
- 10SM
13:15
Clear
28°F / -2°C 9°F / -13°C 43% 29.62 in
(1003 mb)
W 6.9 mph
(W 11 kph)
- 10SM
12:55
Clear
28°F / -2°C 9°F / -13°C 43% 29.62 in
(1003 mb)
W 9.2 mph
(W 15 kph)
- 10SM
12:35
Clear
27°F / -3°C 7°F / -14°C 43% 29.62 in
(1003 mb)
W 11.5 mph
(W 19 kph)
- 10SM
12:15
Clear
27°F / -3°C 9°F / -13°C 46% 29.62 in
(1003 mb)
SSW 10.4 mph
(SSW 17 kph)
- 10SM
11:55
Clear
27°F / -3°C 7°F / -14°C 43% 29.62 in
(1003 mb)
W 10.4 mph
(W 17 kph)
- 10SM
11:35
Clear
25°F / -4°C 9°F / -13°C 50% 29.65 in
(1004 mb)
WNW 6.9 mph
(WNW 11 kph)
- 10SM
11:15
Clear
23°F / -5°C 9°F / -13°C 54% 29.65 in
(1004 mb)
N 6.9 mph
(N 11 kph)
- 10SM
10:55
Clear
21°F / -6°C 9°F / -13°C 58% 29.65 in
(1004 mb)
NNW 4.6 mph
(NNW 7 kph)
- 10SM
10:35
Clear
19°F / -7°C 9°F / -13°C 63% 29.65 in
(1004 mb)
W 3.5 mph
(W 6 kph)
- 10SM
10:15
Clear
18°F / -8°C 7°F / -14°C 62% 29.65 in
(1004 mb)
N 4.6 mph
(N 7 kph)
- 10SM
09:55
Partly Cloudy
18°F / -8°C 7°F / -14°C 62% 29.65 in
(1004 mb)
NNW 4.6 mph
(NNW 7 kph)
- 10SM
09:35
Mostly Cloudy
16°F / -9°C 9°F / -13°C 73% 29.68 in
(1005 mb)
NW 5.8 mph
(NW 9 kph)
- 10SM
09:15
Mostly Cloudy
16°F / -9°C 7°F / -14°C 67% 29.68 in
(1005 mb)
N 4.6 mph
(N 7 kph)
- 10SM
08:55
Partly Cloudy
14°F / -10°C 9°F / -13°C 79% 29.68 in
(1005 mb)
N 8.1 mph
(N 13 kph)
- 10SM
08:35
Mostly Cloudy
12°F / -11°C 7°F / -14°C 79% 29.68 in
(1005 mb)
N 4.6 mph
(N 7 kph)
- 10SM
08:15
Overcast
12°F / -11°C 9°F / -13°C 85% 29.68 in
(1005 mb)
N 6.9 mph
(N 11 kph)
- 10SM
07:55
Overcast
12°F / -11°C 9°F / -13°C 85% 29.68 in
(1005 mb)
NNW 4.6 mph
(NNW 7 kph)
- 10SM
07:35
Overcast
12°F / -11°C 9°F / -13°C 85% 29.68 in
(1005 mb)
NNW 3.5 mph
(NNW 6 kph)
- 10SM
07:15
Overcast
10°F / -12°C 7°F / -14°C 85% 29.68 in
(1005 mb)
Calm - 10SM
06:55
Overcast
10°F / -12°C 7°F / -14°C 85% 29.68 in
(1005 mb)
Calm - 10SM
06:35
Mostly Cloudy
10°F / -12°C 7°F / -14°C 85% 29.68 in
(1005 mb)
Calm - 10SM
06:15
Mostly Cloudy
10°F / -12°C 7°F / -14°C 85% 29.68 in
(1005 mb)
Calm - 10SM
05:55
Mostly Cloudy
10°F / -12°C 7°F / -14°C 85% 29.68 in
(1005 mb)
Calm - 10SM
05:35
Mostly Cloudy
12°F / -11°C 7°F / -14°C 79% 29.71 in
(1006 mb)
Calm - 10SM
05:15
Overcast
12°F / -11°C 9°F / -13°C 85% 29.71 in
(1006 mb)
Calm - 10SM
04:55
Overcast
12°F / -11°C 9°F / -13°C 85% 29.74 in
(1007 mb)
Calm - 10SM
04:35
Overcast
12°F / -11°C 9°F / -13°C 85% 29.74 in
(1007 mb)
Calm - 5SM
04:15
Overcast
12°F / -11°C 9°F / -13°C 85% 29.74 in
(1007 mb)
NW 4.6 mph
(NW 7 kph)
- 6SM
03:55
Overcast
12°F / -11°C 9°F / -13°C 85% 29.74 in
(1007 mb)
NW 4.6 mph
(NW 7 kph)
- 5SM
03:35
Overcast
12°F / -11°C 7°F / -14°C 79% 29.77 in
(1008 mb)
Calm - 4SM
03:15
Overcast
12°F / -11°C 9°F / -13°C 85% 29.77 in
(1008 mb)
NNW 5.8 mph
(NNW 9 kph)
- 5SM
02:55
Overcast
12°F / -11°C 7°F / -14°C 79% 29.77 in
(1008 mb)
Calm - 5SM
02:35
Overcast
12°F / -11°C 9°F / -13°C 85% 29.8 in
(1009 mb)
Calm - 5SM
02:15
Overcast
12°F / -11°C 9°F / -13°C 85% 29.8 in
(1009 mb)
Calm - 5SM
01:55
Overcast
12°F / -11°C 9°F / -13°C 85% 29.83 in
(1010 mb)
NW 3.5 mph
(NW 6 kph)
- 3SM
01:35
Overcast
14°F / -10°C 7°F / -14°C 73% 29.83 in
(1010 mb)
Calm - 6SM
01:15
Overcast
14°F / -10°C 7°F / -14°C 73% 29.83 in
(1010 mb)
SSW 3.5 mph
(SSW 6 kph)
- 6SM
00:55
Overcast
12°F / -11°C N/A N/A 29.83 in
(1010 mb)
SW 3.5 mph
(SW 6 kph)
- 10SM
00:35
Overcast
14°F / -10°C 5°F / -15°C 67% 29.86 in
(1011 mb)
SSE 6.9 mph
(SSE 11 kph)
- 10SM
00:15
Overcast
14°F / -10°C 3°F / -16°C 62% 29.86 in
(1011 mb)
S 8.1 mph
(S 13 kph)
- 10SM
Time Weather Temperature Dewpoint Humidity Pressure Winds Precip Visibility


Weather for websites

WeatherForYou.com, LLC is not responsible for any damages or problems caused by this service. Current weather conditions are obtained from the closest station including government and personal stations which may have varying degrees of accuracy. Weather forecasts are derived from the NOAA NDFD. Like all things, this site belongs to Jesus Christ... He just trusts me to maintain it. If you have any questions or comments email webmaster@weatherforyou.com

Copyright © 2015, WeatherForYou.com LLC. All rights reserved.